Lexington Weather

Lexington, Massachusetts, USA

39°F
3/30/2020 8:17am 
  • Lexington Conditions: Mist, Overcast
  • Temperature: 39.4°F / 4.1°C 
  • Dew Point: 38.7°F 
  • Relative Humidity: 97
  • Wind: Wind from NE NE 3 mph, 10-min avg: 3 mph, gust: 7 mph
  • Barometer: 29.96 in Steady
  • Visibility: 2 miles
  • Rain Today: 0.02 in
  •   

Regional Weather Roundup
for Boston / Norton, MA

        
000
ASUS41 KBOX 280404
RWRBOX

REGIONAL WEATHER ROUNDUP
NATIONAL WEATHER SERVICE BOSTON/NORTON MA
1200 AM EDT SAT MAR 28 2020

NOTE:  "FAIR" INDICATES FEW OR NO CLOUDS BELOW 12,000 FEET WITH NO 
SIGNIFICANT WEATHER AND/OR OBSTRUCTIONS TO VISIBILITY.

MAZALL-280500-
EASTERN MASSACHUSETTS
  
CITY           SKY/WX    TMP DP  RH WIND       PRES   REMARKS
BOSTON         FAIR      48  19  31 NW6       30.07R                  
BEVERLY        FAIR      43  20  39 N5        30.06R                  
LAWRENCE       FAIR      44  21  40 NW6       30.08R                  
BEDFORD        FAIR      38  22  52 CALM      30.07R                  
BLUE HILL        N/A     45  18  34 N8        30.05R                  
NORWOOD        FAIR      37  28  70 S3        30.08R                  
MARSHFIELD     FAIR      36  32  87 CALM      30.06R                  
PLYMOUTH       FAIR      35  29  78 W3        30.07R                  
TAUNTON        FAIR      34  27  75 CALM      30.07R                  
NEW BEDFORD    FAIR      35  31  85 CALM      30.07R                  
$$

MAZALL-280500-
CAPE COD AND THE ISLANDS
  
CITY           SKY/WX    TMP DP  RH WIND       PRES   REMARKS
FALMOUTH       CLEAR     34  27  75 NE5       30.06R WCI  30          
HYANNIS        FAIR      34  27  75 NE3       30.05R                  
CHATHAM        FAIR      35  28  75 CALM      30.07R                  
PROVINCETOWN   FAIR      45  32  60 N9        30.07R                  
NANTUCKET      FAIR      38  29  70 CALM      30.06R                  
MARTHAS VNYRD  FAIR      31  26  82 CALM      30.06R                  
$$
 
MAZALL-280500-
CENTRAL AND WESTERN MASSACHUSETTS
  
CITY           SKY/WX    TMP DP  RH WIND       PRES   REMARKS
WORCESTER      FAIR      44  16  32 N5        30.07R                  
FITCHBURG      FAIR      37  21  52 CALM      30.08R                  
ORANGE         FAIR      32  26  78 CALM      30.09R                  
SPRINGFIELD    FAIR      42  23  48 CALM      30.07R                  
WESTFIELD      FAIR      44  27  51 NE5       30.08R                  
NORTH ADAMS    FAIR      33  27  78 CALM      30.09R                  
PITTSFIELD     FAIR      40  28  62 SW6       30.07R                  
$$
 
RIZALL-280500-
RHODE ISLAND
  
CITY           SKY/WX    TMP DP  RH WIND       PRES   REMARKS
PROVIDENCE     FAIR      48  17  29 N6        30.07R                  
NEWPORT        FAIR      44  30  57 CALM      30.06R                  
BLOCK ISLAND   FAIR      49  20  31 N6        30.07R                  
SMITHFIELD     FAIR      44  20  38 NE7       30.07R                  
WESTERLY       FAIR      42  30  62 CALM      30.07R                  
$$
 
CTZALL-280500-
CONNECTICUT
  
CITY           SKY/WX    TMP DP  RH WIND       PRES   REMARKS
BRADLEY INTL   FAIR      45  27  49 N9        30.07R                  
HARTFORD       FAIR      45  28  51 NE6       30.08R                  
BRIDGEPORT     FAIR      48  27  44 VRB3      30.06R                  
DANBURY        FAIR      36  27  69 CALM      30.08R                  
GROTON         FAIR      44  29  55 N8        30.06R                  
NEW HAVEN      FAIR      43  29  57 CALM      30.06R                  
CHESTER        FAIR      50  27  40 N7        30.06R                  
MERIDEN        FAIR      49  27  42 NE7       30.07R                  
WILLIMANTIC    FAIR      37  29  72 CALM      30.08R                  
OXFORD         FAIR      43  27  53 N13       30.06R                  
$$

MEZ002-015-021-024-NHZ003-005-008-011-012-014-VTZ005-008-280500-
NORTHERN NEW ENGLAND
  
CITY           SKY/WX    TMP DP  RH WIND       PRES   REMARKS
PORTLAND ME    FAIR      42  22  44 N8        30.04R                  
BANGOR ME      FAIR      38  22  52 W9        29.99R WCI  31          
CONCORD NH     FAIR      41  18  39 CALM      30.07R                  
MANCHESTER NH  FAIR      44  18  35 CALM      30.07R                  
NASHUA NH      FAIR      41  21  44 NW7       30.08R                  
PORTSMOUTH NH  CLEAR     42  15  32 NW6       30.04R                  
JAFFREY NH     FAIR      33  25  72 CALM      30.06R                  
KEENE NH       FAIR      31  26  82 CALM      30.09R                  
BURLINGTON VT  FAIR      32  22  66 E3        30.08R                  
MT. WASHINGTON FOG       12  10  92 NW52G62     N/A  VSB 3/8 WCI -14  
$$

NYZ052-076-280500-
EASTERN NEW YORK
  
CITY           SKY/WX    TMP DP  RH WIND       PRES   REMARKS
ALBANY         FAIR      44  27  51 N5        30.11R                  
NEW YORK CITY  MOCLDY    53  32  44 NE6       30.06R                  
$$
 
ANZALL-280500-
MARINE OBSERVATIONS
  
STATION/POSITION TIME  TEMP    WIND        PRES    VSBY  WAVE
                       AIR SEA DIR/SP/G                  HT/PER
                 (UTC) (F)     (DEG/KT/KT) (MB)    (MI)  (FT/S)
BOSTON BUOY      0350   47 42   10/ 14/ 16 1016.7R         3/11
BUZZARDS BAY     0300          150/  7/  7 1017.9R
NANTUCKET SOUND  NOT AVBL
MASS BAY-STELLWA 0304   47 42  350/ 12/ 14 1015.1R  1 7/8  4/11
ISLE OF SHOALS   0300   47     310/ 12/ 13 1016.6R
S OF BLOCK IS    0330      44                N/A           3/11
$$

......................KEY.........................
  SKY/WX - SKY CONDITION/PRESENT WEATHER
  TMP    - TEMPERATURE IN FAHRENHEIT
  DWPT   - DEWPOINT IN FAHRENHEIT
  RH     - RELATIVE HUMIDITY IN PERCENT
  WIND   - DIRECTION AND SPEED IN MPH
  PRES   - MEAN SEA LEVEL PRESSURE IN INCHES OF HG
  WCI    - WIND CHILL INDEX
  VSB    - VISIBILITY IN MILES
  HX     - HEAT INDEX
  TC     - TEMPERATURE IN CELSIUS
  VRB    - VARIABLE WIND DIRECTION
  N/A    - NOT AVAILABLE
  
      

Other recent Regional Weather Roundups

Mon Mar 30, 8:04am

Mon Mar 30, 7:04am

Mon Mar 30, 6:04am

Mon Mar 30, 5:04am

Mon Mar 30, 4:04am

Mon Mar 30, 3:05am

Mon Mar 30, 2:04am

Mon Mar 30, 1:04am

Mon Mar 30, 12:04am

Sun Mar 29, 11:04pm

Sun Mar 29, 10:05pm

Sun Mar 29, 9:04pm

Sun Mar 29, 8:04pm

Sun Mar 29, 7:04pm

Sun Mar 29, 6:04pm

Sun Mar 29, 5:05pm

Sun Mar 29, 4:04pm

Sun Mar 29, 3:04pm

Sun Mar 29, 2:04pm

Sun Mar 29, 1:05pm

Sun Mar 29, 12:04pm

Sun Mar 29, 11:04am

Sun Mar 29, 10:04am

Sun Mar 29, 9:04am

Sun Mar 29, 8:04am

Sun Mar 29, 7:04am

Sun Mar 29, 6:04am

Sun Mar 29, 5:04am

Sun Mar 29, 4:04am

Sun Mar 29, 3:04am

Sun Mar 29, 2:04am

Sun Mar 29, 1:04am

Sun Mar 29, 12:04am

Sat Mar 28, 11:05pm

Sat Mar 28, 10:04pm

Sat Mar 28, 9:04pm

Sat Mar 28, 8:04pm

Sat Mar 28, 7:04pm

Sat Mar 28, 6:04pm

Sat Mar 28, 5:05pm

Sat Mar 28, 4:04pm

Sat Mar 28, 3:04pm

Sat Mar 28, 2:04pm

Sat Mar 28, 1:05pm

Sat Mar 28, 12:04pm

Sat Mar 28, 11:04am

Sat Mar 28, 10:04am

Sat Mar 28, 9:04am

Sat Mar 28, 8:04am

Sat Mar 28, 7:04am

Sat Mar 28, 6:04am

Sat Mar 28, 5:04am

Sat Mar 28, 4:04am

Sat Mar 28, 3:04am

Sat Mar 28, 2:04am

Sat Mar 28, 1:04am

Fri Mar 27, 11:04pm

Fri Mar 27, 10:04pm

Fri Mar 27, 9:04pm

Fri Mar 27, 8:04pm

Fri Mar 27, 7:05pm

Fri Mar 27, 6:04pm

Fri Mar 27, 5:05pm

Fri Mar 27, 4:05pm

Fri Mar 27, 3:04pm

Fri Mar 27, 2:05pm

Fri Mar 27, 1:04pm

Fri Mar 27, 12:04pm

Fri Mar 27, 11:04am

Fri Mar 27, 10:04am

Fri Mar 27, 9:04am

Meta data:

ID: 270e486f-b015-4fc8-ae2c-13c4478d0f07
Link: https://api.weather.gov/products/270e486f-b015-4fc8-ae2c-13c4478d0f07